Regional Weather Roundup
Issued by NWS

Home | Current Version | Previous Version | Graphics & Text | Print | Product List | Glossary Off
Versions: 1 2 3 4 5 6 7 8 9 10 11 12 13 14 15 16 17 18 19 20 21 22 23 24 25 26 27 28 29 30 31 32 33 34 35 36 37 38 39 40 41 42 43 44 45 46

000
ASUS45 KBOU 201010
RWRCO

WEATHER ROUNDUP FOR COLORADO
NATIONAL WEATHER SERVICE PUEBLO CO
300 AM MST TUE FEB 20 2018

NOTE: "FAIR" INDICATES FEW OR NO CLOUDS BELOW 12000 FEET WITH NO
SIGNIFICANT WEATHER AND/OR OBSTRUCTIONS TO VISIBILITY.

COZ001>005-013-030-031-201100-
...NORTHWEST COLORADO...

CITY           SKY/WX    TMP DP  RH WIND       PRES   REMARKS
CRAIG          LGT SNOW   2  -3  80 E5        29.80R WCI  -8
HAYDEN         LGT SNOW   0  -2  92 CALM      29.78R FOG
MEEKER         LGT SNOW   6   1  80 NE3       29.77S
RABBIT EARS PA NOT AVBL
STEAMBOAT SPGS CLOUDY    -1  -4  86 CALM      29.73R
WALDEN         FAIR      -9 -15  77 NE5       29.62R WCI -21
$$

COZ006>008-011-201100-
...WEST CENTRAL VALLEYS...

CITY           SKY/WX    TMP DP  RH WIND       PRES   REMARKS
GRAND JUNCTION CLOUDY    20  19  96 SW3       29.81R
MONTROSE       LGT SNOW  19  16  88 NW8       29.79R FOG     WCI   9
EAGLE          CLOUDY    14   7  73 W10       29.71R WCI   1
RIFLE          CLOUDY    14   9  80 W6        29.79F WCI   5
DELTA          NOT AVBL
NUCLA          CLOUDY    23  16  74 W10       29.81R WCI  12
$$

COZ017>023-064>068-201100-
...SOUTHWEST COLORADO...

CITY           SKY/WX    TMP DP  RH WIND       PRES   REMARKS
DURANGO        MOCLDY    17  14  88 SW8       29.78R WCI   7
CORTEZ         PTCLDY    15   9  76 W6        29.81R WCI   6
PAGOSA SPRINGS CLOUDY    19  12  74 SW8       29.74R WCI   9
TELLURIDE      MOCLDY    13  -2  51 SW10G17   29.68R WCI   0
WOLF CREEK PAS   N/A      0  -2  92 S33       29.52F WCI -27
$$

COZ009-010-012-014-032>034-037-058>063-201100-
...CENTRAL COLORADO...

CITY           SKY/WX    TMP DP  RH WIND       PRES   REMARKS
ASPEN          LGT SNOW  12   7  80 NW9       29.62R WCI   0
BUENA VISTA    CLOUDY    20  -2  37 S13       29.61R WCI   8
COPPER MTN     LGT SNOW   5  -4  66 W23G31    29.44S WCI -17
BERTHOUD PASS  LGT SNOW  -6 -15  65 W31       29.38R WCI -34
COTTONWOOD PAS CLOUDY    18   1  49 SW5G22    29.55R WCI  11
GUNNISON       PTCLDY    13   4  67 S5        29.67R WCI   5
KREMMLING      CLOUDY    14   3  62 W5        29.67R WCI   6
LEADVILLE      LGT SNOW   6   2  83 CALM      29.51R FOG
MONARCH PASS   SNOW       1  -4  78 W45       29.54F VSB 1/2 WCI -28
SALIDA         CLOUDY    22   9  56 SW8       29.71R WCI  13
SUNLIGHT       LGT SNOW  -2  -6  84 W12G23    29.55S WCI -20
WILKERSON PASS CLOUDY   N/A N/A N/A SW15G28   29.49R
$$

COZ069>075-201100-
...SAN LUIS VALLEY/SANGRE DE CRISTO MOUNTAINS...

CITY           SKY/WX    TMP DP  RH WIND       PRES   REMARKS
ALAMOSA        CLOUDY    19  12  74 SW20G26   29.70R WCI   3
DEL NORTE      CLOUDY    19  10  67 W9        29.67R WCI   8
LA VETA PASS   CLOUDY    10   5  79 S31G49    29.65R WCI -12
SAGUACHE       CLOUDY    19  14  79 S15G25    29.64S WCI   5
$$

COZ035-036-038>040-201100-
...NORTHERN COLORADO FRONT RANGE...

CITY           SKY/WX    TMP DP  RH WIND       PRES   REMARKS
DENVER INTL AP FLURRIES   0  -5  79 N10       29.82R WCI -16
DMNS CITY PARK NOT AVBL
AURORA         MOCLDY    -1  -5  85 N8        29.80R WCI -16
FRONT RANGE AP CLOUDY     1  -3  84 N6        29.83R WCI -11
ERIE MUNI ARPT CLOUDY     1  -3  83 CALM      29.90S
BOULDER MUN AP LGT SNOW   3   0  85 NE5       29.83R WCI  -6
CENTENNIAL     CLOUDY     0  -3  87 N9        29.77R FOG     WCI -15
BROOMFIELD     CLOUDY     1  -2  85 NE6       29.80F WCI -10
LOVELAND       PTCLDY     0  -6  76 SE5       29.86R WCI -10
LONGMONT       FLURRIES   4  -1  76 CALM      29.87S
$$

COZ041-046-047-076>085-087-088-201100-
...PIKES PEAK/PALMER DIVIDE AND SOUTHERN FOOTHILLS...

CITY           SKY/WX    TMP DP  RH WIND       PRES   REMARKS
COLO. SPRINGS  LGT SNOW  10   7  87 CALM      29.71R FOG
A. F. ACADEMY  FLURRIES   8   2  79 NW10      29.68R WCI  -7
SCHRIEVER AFB  NOT AVBL
CHEYENNE MTN   NOT AVBL
ELLICOTT         N/A    N/A N/A N/A NE5         N/A
FALCON         FLURRIES   8   6  88 CALM      29.68R
FORT CARSON    CLOUDY    12   9  85 S7        29.72R BLWGSNOWWCI   2
LIMON          CLOUDY     1  -1  91 N16       29.80R WCI -19
MONUMENT HILL  LGT SNOW   1  -4  78 CALM      29.69R
CANON CITY     LGT SNOW  16  12  86 E7        29.76R WCI   6
WALSENBURG     PTSUNNY   12  10  92 SE12      29.70S WCI  -2
TRINIDAD       CLOUDY    14  10  84 N5        29.74R WCI   6
$$

COZ042>045-048>051-090-091-201100-
...NORTHEAST COLORADO...

CITY           SKY/WX    TMP DP  RH WIND       PRES   REMARKS
GREELEY ARPT   MOCLDY     2  -3  80 CALM      29.90R
AKRON          FLURRIES  -2  -6  83 N15       29.85R WCI -22
BURLINGTON     MIX PCPN   5   1  83 N18       29.85R WCI -15
WRAY           MOCLDY     5   0  78 MISG      29.92R
YUMA           NOT AVBL
STERLING       LGT SNOW   3  -2  78 N10       29.91S WCI -12
HOLYOKE        CLOUDY     5  -2  72 N16       29.92R WCI -14
FORT MORGAN    FLURRIES   1  -6  73 NW7       29.89R WCI -12
$$

COZ086-089-092>099-201100-
...SOUTHEAST COLORADO...

CITY           SKY/WX    TMP DP  RH WIND       PRES   REMARKS
PUEBLO         MOCLDY    11   6  81 CALM      29.81R
LA JUNTA       CLOUDY    13   7  77 NE5       29.84S WCI   5
LAMAR          LGT SNOW  13   6  74 N8        29.87R WCI   2
SPRINGFIELD      N/A     13  10  88 N16       29.79R WCI  -3
$$





USA.gov is the U.S. government's official web portal to all federal, state and local government web resources and services.